Miscellaneous Local Product
Issued by NWS North Platte, NE

Home | Current Version | Previous Version | Graphics & Text | Print | Product List | Glossary On
Versions: 1 2 3 4 5 6 7 8 9 10 11 12 13 14 15 16 17 18 19 20 21 22 23 24 25 26 27 28 29 30 31 32 33 34 35 36 37 38 39 40 41 42 43 44 45 46 47 48 49 50
000
AXUS43 KLBF 290010
MISLBF


WESTERN AND NORTH CENTRAL NEBRASKA HOURLY WEATHER ROUNDUP
NATIONAL WEATHER SERVICE NORTH PLATTE NE
700 PM CDT FRI APR 28 2017

NOTE: "FAIR" INDICATES FEW OR NO CLOUDS BELOW 12,000 FEET WITH NO
SIGNIFICANT WEATHER AND/OR OBSTRUCTIONS TO VISIBILITY.

NOTE: STATIONS NOT REPORTING VARIABLES SUCH AS SKY/WEATHER OR
PRESSURE ARE PROVIDED BY RAWS AND APRS NETWORKS AND ARE NOT UNDER
NATIONAL WEATHER SERVICE QUALITY CONTROL.

...OBSERVATIONS IN AND NEAR THE EASTERN PANHANDLE OF NEBRASKA...

CITY           SKY/WX    TMP DP  RH WIND       PRES   REMARKS
PINE RIDGE     CLOUDY    45  29  53 NE12      30.03R
CHADRON        CLOUDY    43  29  57 NE9       30.04R
ALLIANCE       LGT SNOW  34  31  88 NE10      30.01R FOG     WCI  26
SIDNEY         CLOUDY    33  31  92 NE16      29.97R WCI  23
$$

...OBSERVATIONS IN NORTHERN NEBRASKA AND FAR SOUTHERN SOUTH DAKOTA...

CITY           SKY/WX    TMP DP  RH WIND       PRES   REMARKS
WINNER         FAIR      52  26  36 E20       30.01R
VALENTINE      CLOUDY    48  23  37 NE17      30.01R
THEDFORD       CLOUDY    39  35  84 E5        30.01R
AINSWORTH      CLOUDY    44  28  53 NE12      30.00R
O`NEILL        CLOUDY    46  27  48 NE14      30.00R
ORD            CLOUDY    39  33  79 N12       29.98R WCI  32
BROKEN BOW     CLOUDY    38  34  85 NE13      29.98R WCI  30
VALENTINE NWR    N/A     43  26  50 NE9G17      N/A
HALSEY           N/A     38  35  90 NE3         N/A
BUTTE            N/A     47  29  49 N15G22      N/A
CHAMBERS         N/A     43  30  60 CALM        N/A
EWING            N/A     43  35  73 NE3         N/A
$$

...OBSERVATIONS IN SOUTHWEST NEBRASKA AND FAR NORTHEAST COLORADO...

CITY           SKY/WX    TMP DP  RH WIND       PRES   REMARKS
HOLYOKE        CLOUDY    37  34  87 NE18G24   29.95R WCI  27
IMPERIAL       CLOUDY    38  32  79 NE16      29.94S WCI  29
OGALLALA       CLOUDY    39  34  82 NE10      29.98R WCI  32
NORTH PLATTE   CLOUDY    38  32  79 NE12      29.99R WCI  30
MCCOOK         CLOUDY    38  36  92 NE17      29.91S WCI  28
LEXINGTON      CLOUDY    38  34  85 NE15      29.97R WCI  30
STAPLETON        N/A     35  33  91 CALM        N/A
$$

...OBSERVATIONS IN CENTRAL LINCOLN COUNTY AREA...

CITY           SKY/WX    TMP DP  RH WIND       PRES   REMARKS
N.P. AIRPORT   CLOUDY    38  32  79 NE12      29.99R WCI  30
N.P. DOWNTOWN    N/A     36  31  83 NE9         N/A  WCI  29
N.P. SOUTHEAST   N/A     36  31  82 NE5G12      N/A  WCI  32
N.P. HILLCREST   N/A     36  32  87 NE17        N/A  WCI  26
$$

...SOME OBSERVATIONS FROM AROUND THE REGION...

CITY           SKY/WX    TMP DP  RH WIND       PRES   REMARKS
DENVER         SNOW      33  31  92 NE20      29.84R VSB 1/4 WCI  21
LIMON          CLOUDY    37  34  89 NE23G32   29.81R WCI  26
ASPEN          CLOUDY    37  17  44 N3        29.76R
LARAMIE        CLOUDY    28  21  75 E21G31    29.89R WCI  15
CASPER         CLOUDY    31  27  85 E23       30.02R WCI  18
CHEYENNE       FRZ RAIN  29  27  92 NE18G24   29.94R VSB 1/2 WCI  16
SCOTTSBLUFF    LGT SNOW  34  32  92 N5        30.03R FOG     WCI  30
GRAND ISLAND   CLOUDY    38  38 100 NE18      29.96R FOG     WCI  28
OMAHA          DRIZZLE   42  38  85 N13       29.94R FOG
SIOUX FALLS    CLOUDY    49  32  52 NE17      29.99R
PIERRE         MOSUNNY   52  18  26 NE17      30.03R
RAPID CITY     CLOUDY    46  26  45 NE10      30.06R
BISMARCK       SUNNY     56  11  16 NE3       30.10R
KANSAS CITY    CLOUDY    49  48  97 N13       29.78R
HILL CITY      CLOUDY    41  38  89 NE15      29.90R
WICHITA        MOSUNNY   69  46  43 N10       29.72R
DODGE CITY     LGT RAIN  53  47  79 N15       29.80R
OKLAHOMA CITY  CLOUDY    74  60  61 E8        29.64R
DALLAS         CLOUDY    85  70  60 SE13      29.55R
AMARILLO       CLOUDY    50  49  96 NW23G30   29.75R
$$




USA.gov is the U.S. government's official web portal to all federal, state and local government web resources and services.